Regional Weather Roundup
Issued by NWS Kansas City/Pleasant Hill, MO

Home | Current Version | Previous Version | Text Only | Print | Product List | Glossary On
Versions: 1 2 3 4 5 6 7 8 9 10 11 12 13 14 15 16 17 18 19 20 21 22 23 24 25 26 27
000
ASUS43 KEAX 260810
RWREAX

WEATHER ROUNDUP FOR EASTERN KANSAS AND NORTHWEST MISSOURI
NATIONAL WEATHER SERVICE KANSAS CITY/PLEASANT HILL MO
300 AM CDT FRI MAY 26 2017

KSZ040-057-103>105-MOZ028-029-037-043-260900-
...KANSAS CITY METROPOLITAN AREA...

CITY           SKY/WX    TMP DP  RH WIND       PRES   REMARKS
K.C. INTL      CLOUDY    65  58  78 W5        29.70R
K.C. DOWNTOWN  CLOUDY    68  58  70 SW6       29.68R
LEES SUMMIT    CLOUDY    67  58  72 VRB6G18   29.68R
OLATHE - IXD   CLOUDY    65  59  81 S3        29.71R THUNDER
OLATHE - OJC   CLOUDY    64  59  83 S5        29.69R
LAWRENCE       TSTM      64  62  93 E12       29.66S

$$

MOZ001>008-011>017-020>025-030>033-038>040-044>046-053-054-260900-
...NORTHERN AND CENTRAL MISSOURI...

CITY           SKY/WX    TMP DP  RH WIND       PRES   REMARKS
ST. JOSEPH     LGT RAIN  65  58  78 S8        29.67R
MOSBY          PTSUNNY   64  55  72 CALM      29.68R
WARRENSBURG    CLOUDY    61  55  82 SE5       29.67F
WHITEMAN AFB   PTCLDY    64  63  99 S9        29.67F
CLINTON        PTCLDY    64  57  77 SE8       29.69F
SEDALIA        CLEAR     63  58  83 SE9       29.70F
WARSAW         NOT AVBL
CHILLICOTHE      N/A     63  55  75 SE3       29.69F
KIRKSVILLE     CLOUDY    61  54  77 SE7       29.72F

$$

MOZ041-047>049-056>058-063>065-088>090-097-260900-
...EASTERN AND SOUTHERN MISSOURI...

CITY           SKY/WX    TMP DP  RH WIND       PRES   REMARKS
ST. LOUIS INTL MOCLDY    66  53  63 S5        29.78F
SPIRIT OF STL  PTCLDY    63  54  72 CALM      29.76F
COLUMBIA       PTCLDY    62  55  77 SE9       29.73F
JEFFERSON CITY PTCLDY    64  54  69 SE7       29.73F
ROLLA          PTCLDY    59  55  87 S9        29.76S
OSAGE BEACH    CLOUDY    62  56  80 SE3       29.75S
SPRINGFIELD    PTCLDY    68  57  68 E14       29.72R
BRANSON        MOCLDY    63  57  82 SE12      29.72F
JOPLIN         PTCLDY    69  60  73 SE10      29.64R
WEST PLAINS    MOCLDY    64  57  78 SE6       29.79F

$$

IAZ060-094-KSZ022-034>040-054-083-096-NEZ052-066-093-260900-
...KANSAS...SOUTHEAST NEBRASKA AND IOWA...

CITY           SKY/WX    TMP DP  RH WIND       PRES   REMARKS
TOPEKA         LGT RAIN  64  62  93 E23       29.53F
MANHATTAN      CLOUDY    65  62  90 NE6       29.55F
EMPORIA        CLOUDY    64  62  93 SE12      29.62F
CHANUTE        PTCLDY    67  59  75 SE9       29.63R
WICHITA        PTCLDY    68  61  78 NE8       29.57F
OMAHA          CLOUDY    67  55  65 SE7       29.63F
LINCOLN        MOCLDY    66  57  72 CALM      29.64R
FALLS CITY     CLOUDY    62  58  86 E7        29.57F
LAMONI         CLOUDY    61  53  75 VRB5      29.68F
DES MOINES     MOCLDY    62  52  69 E7        29.69F

$$





USA.gov is the U.S. government's official web portal to all federal, state and local government web resources and services.